^^
Station Historical Data
 
Daily Summary for July 28, 2016 Units:  English    Metric   Both
« Previous Day
Next Day »
Daily Weekly Monthly Yearly Custom
  Current: High: Low: Average:
Temperature: 74.4 °F 74.8 °F 71.2 °F 72.6 °F
Dew Point: 70.6 °F 70.6 °F 68.2 °F 68.9 °F
Humidity: 88% 92% 81% 88%
Wind Speed: 0.0mph 2.3mph 0.0mph 0.4mph
Wind Gust: 0.0mph 2.3mph - -
WindCalm - - SSW
Pressure: 29.93 in 29.95 in 29.90 in -
Precipitation: 0.00 in      
Historical Graphs
 
 
Tabular Data for July 28, 2016
Time Temperature Dew Point Pressure Wind Wind Speed Wind Gust Humidity Rainfall Rate (Hourly) solar Conditions
00:03 74.8 °F 68.9 °F 29.94 in SSW 1.2 mph 1.2 mph 82% 0.00 in WeatherDisplay:10.37 W/m2 CLR
00:08 74.7 °F 68.8 °F 29.94 in SSW 1.2 mph 1.2 mph 82% 0.00 in WeatherDisplay:10.37 W/m2 CLR
00:13 74.7 °F 68.8 °F 29.94 in SSW 1.2 mph 1.2 mph 82% 0.00 in WeatherDisplay:10.37 W/m2 CLR
00:18 74.7 °F 68.5 °F 29.94 in SSW 1.2 mph 1.2 mph 81% 0.00 in WeatherDisplay:10.37 W/m2 CLR
00:23 74.6 °F 68.7 °F 29.94 in SSW 1.2 mph 1.2 mph 82% 0.00 in WeatherDisplay:10.37 W/m2 CLR
00:28 74.6 °F 68.4 °F 29.95 in SSW 1.2 mph   81% 0.00 in WeatherDisplay:10.37 W/m2 CLR
00:33 74.6 °F 68.7 °F 29.95 in Calm     82% 0.00 in WeatherDisplay:10.37 W/m2 CLR
00:38 74.5 °F 68.6 °F 29.95 in Calm     82% 0.00 in WeatherDisplay:10.37 W/m2 CLR
00:43 74.4 °F 68.5 °F 29.95 in Calm     82% 0.00 in WeatherDisplay:10.37 W/m2 CLR
00:48 74.3 °F 68.4 °F 29.95 in Calm     82% 0.00 in WeatherDisplay:10.37 W/m2 CLR
00:53 74.2 °F 68.3 °F 29.95 in Calm     82% 0.00 in WeatherDisplay:10.37 W/m2 CLR
00:58 74.0 °F 68.5 °F 29.95 in Calm     83% 0.00 in WeatherDisplay:10.37 W/m2 CLR
01:03 73.9 °F 68.4 °F 29.95 in Calm     83% 0.00 in WeatherDisplay:10.37 W/m2 CLR
01:08 73.8 °F 68.3 °F 29.95 in Calm     83% 0.00 in WeatherDisplay:10.37 W/m2 CLR
01:13 73.7 °F 68.6 °F 29.94 in Calm     84% 0.00 in WeatherDisplay:10.37 W/m2 CLR
01:18 73.6 °F 68.5 °F 29.94 in Calm     84% 0.00 in WeatherDisplay:10.37 W/m2 CLR
01:23 73.4 °F 68.3 °F 29.94 in Calm     84% 0.00 in WeatherDisplay:10.37 W/m2 CLR
01:28 73.3 °F 68.5 °F 29.94 in Calm     85% 0.00 in WeatherDisplay:10.37 W/m2 CLR
01:33 73.1 °F 68.3 °F 29.94 in Calm     85% 0.00 in WeatherDisplay:10.37 W/m2 CLR
01:38 73.0 °F 68.2 °F 29.94 in Calm     85% 0.00 in WeatherDisplay:10.37 W/m2 CLR
01:43 72.9 °F 68.5 °F 29.94 in Calm     86% 0.00 in WeatherDisplay:10.37 W/m2 CLR
01:48 72.8 °F 68.4 °F 29.94 in Calm     86% 0.00 in WeatherDisplay:10.37 W/m2 CLR
01:53 72.6 °F 68.5 °F 29.94 in Calm     87% 0.00 in WeatherDisplay:10.37 W/m2 CLR
01:58 72.5 °F 68.4 °F 29.94 in Calm     87% 0.00 in WeatherDisplay:10.37 W/m2 CLR
02:03 72.4 °F 68.3 °F 29.94 in Calm     87% 0.00 in WeatherDisplay:10.37 W/m2 CLR
02:08 72.4 °F 68.3 °F 29.93 in Calm     87% 0.00 in WeatherDisplay:10.37 W/m2 CLR
02:13 72.3 °F 68.2 °F 29.93 in Calm     87% 0.00 in WeatherDisplay:10.37 W/m2 CLR
02:18 72.2 °F 68.4 °F 29.93 in Calm     88% 0.00 in WeatherDisplay:10.37 W/m2 CLR
02:23 72.1 °F 68.3 °F 29.93 in Calm     88% 0.00 in WeatherDisplay:10.37 W/m2 CLR
02:28 72.1 °F 68.3 °F 29.93 in Calm     88% 0.00 in WeatherDisplay:10.37 W/m2 CLR
02:33 72.0 °F 68.2 °F 29.92 in Calm     88% 0.00 in WeatherDisplay:10.37 W/m2 CLR
02:38 72.0 °F 68.2 °F 29.92 in Calm     88% 0.00 in WeatherDisplay:10.37 W/m2 CLR
02:43 71.9 °F 68.5 °F 29.92 in Calm   0.1 mph 89% 0.00 in WeatherDisplay:10.37 W/m2 CLR
02:48 71.9 °F 68.5 °F 29.92 in Calm     89% 0.00 in WeatherDisplay:10.37 W/m2 CLR
02:53 71.8 °F 68.4 °F 29.92 in Calm     89% 0.00 in WeatherDisplay:10.37 W/m2 CLR
02:58 71.8 °F 68.4 °F 29.92 in SSW 1.2 mph   89% 0.00 in WeatherDisplay:10.37 W/m2 CLR
03:03 71.7 °F 68.3 °F 29.91 in Calm     89% 0.00 in WeatherDisplay:10.37 W/m2 CLR
03:08 71.7 °F 68.3 °F 29.92 in Calm     89% 0.00 in WeatherDisplay:10.37 W/m2 CLR
03:13 71.7 °F 68.3 °F 29.91 in Calm     89% 0.00 in WeatherDisplay:10.37 W/m2 CLR
03:18 71.6 °F 68.5 °F 29.91 in Calm     90% 0.00 in WeatherDisplay:10.37 W/m2 CLR
03:23 71.5 °F 68.4 °F 29.91 in Calm     90% 0.00 in WeatherDisplay:10.37 W/m2 CLR
03:28 71.5 °F 68.4 °F 29.91 in Calm     90% 0.00 in WeatherDisplay:10.37 W/m2 CLR
03:33 71.4 °F 68.3 °F 29.91 in SSW 1.2 mph 1.2 mph 90% 0.00 in WeatherDisplay:10.37 W/m2 CLR
03:38 71.3 °F 68.2 °F 29.91 in Calm     90% 0.00 in WeatherDisplay:10.37 W/m2 CLR
03:43 71.3 °F 68.2 °F 29.91 in Calm     90% 0.00 in WeatherDisplay:10.37 W/m2 CLR
03:48 71.2 °F 68.4 °F 29.91 in Calm     91% 0.00 in WeatherDisplay:10.37 W/m2 CLR
03:53 71.2 °F 68.4 °F 29.91 in Calm     91% 0.00 in WeatherDisplay:10.37 W/m2 CLR
03:58 71.2 °F 68.4 °F 29.91 in SSW 1.2 mph   91% 0.00 in WeatherDisplay:10.37 W/m2 CLR
04:03 71.2 °F 68.4 °F 29.91 in Calm     91% 0.00 in WeatherDisplay:10.37 W/m2 CLR
04:08 71.3 °F 68.5 °F 29.91 in Calm     91% 0.00 in WeatherDisplay:10.37 W/m2 CLR
04:13 71.3 °F 68.9 °F 29.91 in Calm     92% 0.00 in WeatherDisplay:10.37 W/m2 CLR
04:18 71.4 °F 69.0 °F 29.91 in Calm     92% 0.00 in WeatherDisplay:10.37 W/m2 CLR
04:23 71.5 °F 69.1 °F 29.91 in Calm     92% 0.00 in WeatherDisplay:10.37 W/m2 CLR
04:28 71.5 °F 69.1 °F 29.91 in Calm     92% 0.00 in WeatherDisplay:10.37 W/m2 CLR
04:33 71.6 °F 69.2 °F 29.91 in Calm     92% 0.00 in WeatherDisplay:10.37 W/m2 CLR
04:38 71.7 °F 69.3 °F 29.90 in Calm     92% 0.00 in WeatherDisplay:10.37 W/m2 CLR
04:43 71.8 °F 69.0 °F 29.91 in Calm     91% 0.00 in WeatherDisplay:10.37 W/m2 CLR
04:48 71.9 °F 69.1 °F 29.90 in Calm     91% 0.00 in WeatherDisplay:10.37 W/m2 CLR
04:53 71.9 °F 69.1 °F 29.90 in SSW 1.2 mph   91% 0.00 in WeatherDisplay:10.37 W/m2 CLR
04:58 72.0 °F 69.2 °F 29.90 in Calm     91% 0.00 in WeatherDisplay:10.37 W/m2 CLR
05:03 72.0 °F 69.2 °F 29.90 in SSW 1.0 mph   91% 0.00 in WeatherDisplay:10.37 W/m2 CLR
05:08 72.1 °F 69.3 °F 29.90 in Calm     91% 0.00 in WeatherDisplay:10.37 W/m2 CLR
05:13 72.1 °F 69.3 °F 29.90 in SSW 1.2 mph 1.2 mph 91% 0.00 in WeatherDisplay:10.37 W/m2 CLR
05:18 72.0 °F 69.2 °F 29.90 in Calm     91% 0.00 in WeatherDisplay:10.37 W/m2 CLR
05:23 72.0 °F 69.2 °F 29.91 in Calm     91% 0.00 in WeatherDisplay:10.37 W/m2 CLR
05:28 72.0 °F 69.2 °F 29.91 in Calm     91% 0.00 in WeatherDisplay:10.37 W/m2 CLR
05:33 72.0 °F 69.2 °F 29.91 in Calm     91% 0.00 in WeatherDisplay:10.37 W/m2 SCT
05:38 72.0 °F 69.2 °F 29.91 in Calm     91% 0.00 in WeatherDisplay:10.37 W/m2 SCT
05:43 72.1 °F 69.3 °F 29.91 in Calm     91% 0.00 in WeatherDisplay:10.37 W/m2 SCT
05:48 72.2 °F 69.4 °F 29.91 in SSW 1.2 mph   91% 0.00 in WeatherDisplay:10.37 W/m2 SCT
05:53 72.2 °F 69.4 °F 29.91 in Calm     91% 0.00 in WeatherDisplay:10.37 W/m2 BKN
05:58 72.2 °F 69.4 °F 29.91 in SSW 1.2 mph 1.2 mph 91% 0.00 in WeatherDisplay:10.37 W/m2 BKN
06:03 72.3 °F 69.5 °F 29.91 in SSW 1.2 mph 1.2 mph 91% 0.00 in WeatherDisplay:10.37 W/m2 BKN
06:08 72.4 °F 69.6 °F 29.91 in Calm     91% 0.00 in WeatherDisplay:10.37 W/m2 BKN
06:13 72.5 °F 69.7 °F 29.91 in Calm     91% 0.00 in WeatherDisplay:10.37 W/m2 BKN
06:18 72.6 °F 69.5 °F 29.91 in SSW 1.2 mph 1.2 mph 90% 0.00 in WeatherDisplay:10.37 W/m2 BKN
06:23 72.7 °F 69.6 °F 29.92 in Calm     90% 0.00 in WeatherDisplay:10.37 W/m2 BKN
06:28 72.8 °F 69.7 °F 29.92 in Calm     90% 0.00 in WeatherDisplay:10.37 W/m2 BKN
06:33 73.0 °F 69.9 °F 29.91 in SSW 1.2 mph 1.2 mph 90% 0.00 in WeatherDisplay:10.37 W/m2 OVC
06:36 73.1 °F 69.7 °F 29.91 in SSW 2.3 mph 2.3 mph 89% 0.00 in WeatherDisplay:10.37 W/m2 OVC
06:41 73.3 °F 69.9 °F 29.92 in SSW 1.2 mph 1.2 mph 89% 0.00 in WeatherDisplay:10.37 W/m2 OVC
06:46 73.4 °F 70.0 °F 29.92 in SSW 2.3 mph 2.3 mph 89% 0.00 in WeatherDisplay:10.37 W/m2 OVC
06:51 73.5 °F 70.1 °F 29.92 in SSW 1.2 mph 1.2 mph 89% 0.00 in WeatherDisplay:10.37 W/m2 BKN
06:56 73.7 °F 69.9 °F 29.92 in SSW 2.3 mph 2.3 mph 88% 0.00 in WeatherDisplay:10.37 W/m2 BKN
07:01 73.8 °F 70.0 °F 29.92 in Calm     88% 0.00 in WeatherDisplay:10.37 W/m2 BKN
07:06 74.0 °F 70.2 °F 29.92 in SSW 1.2 mph 1.2 mph 88% 0.00 in WeatherDisplay:10.37 W/m2 BKN
07:11 74.1 °F 70.3 °F 29.92 in SSW 1.2 mph 1.2 mph 88% 0.00 in WeatherDisplay:10.37 W/m2 BKN
07:16 74.3 °F 70.5 °F 29.92 in Calm     88% 0.00 in WeatherDisplay:10.37 W/m2 BKN
07:21 74.4 °F 70.6 °F 29.93 in Calm     88% 0.00 in WeatherDisplay:10.37 W/m2 BKN
jolietwx - Weather
Compliments of Weather Underground - 1.75 mb